Regional Weather Roundup
Issued by NWS Northern Indiana

Home | Current Version | Previous Version | Text Only | Print | Product List | Glossary On
Versions: 1 2 3 4 5 6 7 8 9 10 11 12 13 14 15 16 17 18 19 20 21 22 23 24 25 26 27 28 29 30 31 32 33 34 35 36 37 38 39 40 41 42 43 44 45 46 47 48 49 50
000
ASUS43 KIWX 272000
RWRIWX

KIWX WEATHER ROUNDUP
NATIONAL WEATHER SERVICE NORTHERN INDIANA
300 PM EST TUE JAN 27 2015

NOTE: "FAIR" INDICATES FEW OR NO CLOUDS BELOW 12,000 FEET WITH NO
SIGNIFICANT WEATHER AND/OR OBSTRUCTIONS TO VISIBILITY.

* THESE STATIONS ARE NOT UNDER NWS QUALITY CONTROL. THEY ALSO MAY NOT
  REPORT WEATHER SUCH AS PRECIPITATION OR FOG.

INZ001>027-272100-
NORTHERN INDIANA

CITY           SKY/WX    TMP DP  RH WIND       PRES   REMARKS
GARY*          MOSUNNY   32  14  47 NE10      30.18S WCI  24
SOUTH BEND     SUNNY     30   7  37 N7        30.16R WCI  23
ELKHART*       SUNNY     28   3  34 N7        30.16R WCI  21
GOSHEN         SUNNY     27  14  58 N7        30.14R WCI  19
ANGOLA*        SUNNY     25  10  54 VRB6      30.12R WCI  18
FORT WAYNE     MOSUNNY   26  12  55 NW8       30.14R WCI  18

$$
INZ028>050-272100-
CENTRAL INDIANA

CITY           SKY/WX    TMP DP  RH WIND       PRES   REMARKS
LAFAYETTE      CLOUDY    27  11  51 NE5       30.15S WCI  22
KOKOMO*        SUNNY    N/A N/A N/A N3        30.14R
MUNCIE*        SUNNY     25  13  60 N6        30.12R WCI  18
INDIANAPOLIS   PTSUNNY   28  10  46 N7        30.12R WCI  21

$$
MIZ043>046-050>051-056>058-064>065-071>073-077>080-272100-
SOUTHWEST LOWER MICHIGAN

CITY           SKY/WX    TMP DP  RH WIND       PRES   REMARKS
BATTLE CREEK   SUNNY     28  13  53 N8        30.15R WCI  20
BENTON HARBOR  SUNNY     26  13  57 N9        30.18R WCI  17
COLDWATER*     SUNNY     26  11  54 N7        30.13R WCI  18
HILLSDALE*     SUNNY     25  10  52 N8        30.10R WCI  16
HOLLAND        SUNNY     28  10  46 VRB5      30.19R WCI  23
GRAND RAPIDS   MOSUNNY   28  11  48 VRB7      30.18R WCI  21
KALAMAZOO      SUNNY     27  11  51 N8        30.16R WCI  19
STURGIS*       SUNNY     25  12  58 NW7       30.14R WCI  17
THREE RIVERS*  FAIR      26  10  50 NW8       30.16R WCI  18

$$
OHZ001>008-015>018-024>025-272100-
NORTHWEST OHIO

CITY           SKY/WX    TMP DP  RH WIND       PRES   REMARKS
DEFIANCE       SUNNY     26  10  50 N9        30.14R WCI  17
FINDLAY        SUNNY     22  12  65 NW9       30.10R WCI  12
TOLEDO EXPRESS SUNNY     25  11  55 NW12      30.11R WCI  14
TOLEDO METCALF MOSUNNY   25  11  55 CALM      30.12R
LIMA           SUNNY     21  11  65 NW9       30.09R WCI  11

$$
AND FOR LAKE MICHIGAN COASTAL AND OPEN LAKE BUOY OBSERVATIONS

STATION/POSITION TEMP    WIND        PRES    VSBY  WAVE
                 AIR SEA DIR/SP/G                  HT/PER
                 (F)     (DEG/KT/KT) (MB)    (MI)  (FT/S)
CALUMET HARBOR    29      20/  8/ 11   N/A
MICHIGAN CITY     27     340/ 11/ 13   N/A
SAINT JOSEPH      26     340/  8/ 10 1021.7F
SAINT JOSEPH CG                      1023.2      6   0

$$
&&



USA.gov is the U.S. government's official web portal to all federal, state and local government web resources and services.